EDW33CW LGKR-LSZH

Flight info

Callsign EDW33CW
Flight time N/A
Altitude 36000
Route OLGAT DCT AIOSA DCT BAXON DCT RESIA Z50 KELIP
Aircraft A320/M-SDE3FGHIRWY/LB1

Departure

Time N/A
Airport Corfu Ioannis Kapodistrias International Airport (LGKR)

Arrival

Time 2026-05-05 12:02
Airport Zürich Airport (LSZH)
Time Latitude Longitude Altitude Speed Heading
2026-05-05 10:35 41.30214 17.91363 36124 ft 406 kts 319°
2026-05-05 10:35 41.32434 17.89034 36123 ft 406 kts 319°
2026-05-05 10:35 41.36869 17.84389 36118 ft 406 kts 319°
2026-05-05 10:36 41.41299 17.79733 36116 ft 406 kts 319°
2026-05-05 10:36 41.45721 17.75063 36114 ft 405 kts 319°
2026-05-05 10:37 41.50116 17.70414 36096 ft 406 kts 318°
2026-05-05 10:37 41.54545 17.65729 36094 ft 406 kts 318°
2026-05-05 10:38 41.58973 17.61041 36095 ft 406 kts 318°
2026-05-05 10:38 41.63403 17.56343 36092 ft 406 kts 318°
2026-05-05 10:39 41.67822 17.51627 36105 ft 406 kts 318°
2026-05-05 10:39 41.72245 17.46907 36097 ft 407 kts 318°
2026-05-05 10:40 41.76645 17.42212 36091 ft 407 kts 318°
2026-05-05 10:40 41.81068 17.37476 36083 ft 407 kts 317°
2026-05-05 10:41 41.85497 17.32730 36078 ft 408 kts 317°
2026-05-05 10:41 41.89928 17.27966 36078 ft 408 kts 317°
2026-05-05 10:42 41.96112 17.20193 36081 ft 405 kts 310°
2026-05-05 10:43 41.99976 17.14666 36075 ft 406 kts 310°
2026-05-05 10:43 42.03833 17.09118 36075 ft 406 kts 310°
2026-05-05 10:44 42.07700 17.03562 36072 ft 406 kts 310°
2026-05-05 10:44 42.11542 16.98043 36079 ft 406 kts 310°
2026-05-05 10:45 42.15401 16.92488 36078 ft 406 kts 310°
2026-05-05 10:45 42.19263 16.86914 36086 ft 407 kts 309°
2026-05-05 10:46 42.23125 16.81328 36082 ft 407 kts 309°
2026-05-05 10:46 42.26991 16.75727 36075 ft 408 kts 309°
2026-05-05 10:47 42.30857 16.70115 36076 ft 408 kts 309°
2026-05-05 10:47 42.34717 16.64499 36086 ft 408 kts 309°
2026-05-05 10:48 42.38577 16.58874 36086 ft 408 kts 309°
2026-05-05 10:48 42.42435 16.53240 36087 ft 407 kts 309°
2026-05-05 10:49 42.46293 16.47609 36076 ft 408 kts 309°
2026-05-05 10:49 42.50123 16.41996 36070 ft 409 kts 309°
2026-05-05 10:50 42.53979 16.36330 36066 ft 409 kts 309°
2026-05-05 10:50 42.57838 16.30644 36064 ft 410 kts 308°
2026-05-05 10:51 42.61703 16.24937 36058 ft 410 kts 308°
2026-05-05 10:51 42.65574 16.19234 36056 ft 411 kts 308°
2026-05-05 10:52 42.69446 16.13504 36062 ft 411 kts 308°
2026-05-05 10:52 42.73315 16.07769 36052 ft 412 kts 308°
2026-05-05 10:53 42.77180 16.02012 36055 ft 412 kts 308°
2026-05-05 10:53 42.81029 15.96267 36067 ft 413 kts 308°
2026-05-05 10:54 42.84906 15.90488 36056 ft 414 kts 308°
2026-05-05 10:54 42.88789 15.84686 36050 ft 414 kts 308°
2026-05-05 10:55 42.92666 15.78879 36063 ft 414 kts 308°
2026-05-05 10:55 42.96549 15.73069 36060 ft 415 kts 308°
2026-05-05 10:56 43.00433 15.67219 36050 ft 415 kts 308°
2026-05-05 10:56 43.04315 15.61362 36040 ft 416 kts 308°
2026-05-05 10:57 43.08207 15.55486 36042 ft 417 kts 308°
2026-05-05 10:57 43.12101 15.49581 36036 ft 418 kts 307°
2026-05-05 10:58 43.16007 15.43659 36038 ft 419 kts 308°
2026-05-05 10:58 43.19894 15.37761 36045 ft 421 kts 308°
2026-05-05 10:59 43.23825 15.31772 36027 ft 423 kts 308°
2026-05-05 10:59 43.27764 15.25767 36036 ft 425 kts 308°
2026-05-05 11:00 43.31717 15.19727 36026 ft 426 kts 308°
2026-05-05 11:00 43.35675 15.13672 36030 ft 426 kts 308°
2026-05-05 11:01 43.39631 15.07599 36037 ft 427 kts 308°
2026-05-05 11:01 43.43590 15.01495 36047 ft 428 kts 308°
2026-05-05 11:02 43.47536 14.95416 36035 ft 429 kts 308°
2026-05-05 11:02 43.51508 14.89279 36046 ft 429 kts 308°
2026-05-05 11:03 43.55475 14.83125 36046 ft 430 kts 308°
2026-05-05 11:03 43.59448 14.76959 36050 ft 430 kts 308°
2026-05-05 11:04 43.63418 14.70784 36050 ft 430 kts 308°
2026-05-05 11:04 43.67388 14.64601 36061 ft 430 kts 308°
2026-05-05 11:05 43.71351 14.58401 36054 ft 431 kts 308°
2026-05-05 11:05 43.75321 14.52189 36052 ft 431 kts 308°
2026-05-05 11:06 43.79264 14.46007 36047 ft 431 kts 308°
2026-05-05 11:06 43.83223 14.39771 36049 ft 431 kts 308°
2026-05-05 11:07 43.87191 14.33522 36050 ft 431 kts 308°
2026-05-05 11:07 43.91154 14.27274 36050 ft 431 kts 308°
2026-05-05 11:08 43.95108 14.21017 36060 ft 431 kts 308°
2026-05-05 11:08 43.99056 14.14752 36056 ft 431 kts 308°
2026-05-05 11:09 44.03001 14.08485 36053 ft 431 kts 308°
2026-05-05 11:09 44.06936 14.02212 36050 ft 430 kts 308°
2026-05-05 11:10 44.10867 13.95931 36050 ft 430 kts 308°
2026-05-05 11:10 44.14796 13.89643 36051 ft 430 kts 308°
2026-05-05 11:11 44.18721 13.83358 36059 ft 430 kts 308°
2026-05-05 11:11 44.22652 13.77049 36053 ft 431 kts 308°
2026-05-05 11:12 44.25907 13.71803 36060 ft 431 kts 308°
2026-05-05 11:12 44.30470 13.64428 36057 ft 431 kts 308°
2026-05-05 11:13 44.33731 13.59152 36055 ft 431 kts 308°
2026-05-05 11:13 44.37656 13.52802 36071 ft 431 kts 307°
2026-05-05 11:14 44.41569 13.46443 36069 ft 431 kts 308°
2026-05-05 11:14 44.45529 13.40147 36060 ft 431 kts 309°
2026-05-05 11:15 44.49549 13.33900 36055 ft 432 kts 309°
2026-05-05 11:15 44.53543 13.27678 36051 ft 431 kts 309°
2026-05-05 11:16 44.57544 13.21388 36059 ft 431 kts 308°
2026-05-05 11:16 44.61526 13.15098 36046 ft 432 kts 308°
2026-05-05 11:17 44.65514 13.08797 36044 ft 432 kts 308°
2026-05-05 11:17 44.69505 13.02472 36043 ft 433 kts 308°
2026-05-05 11:18 44.73472 12.96180 36046 ft 433 kts 308°
2026-05-05 11:18 44.77462 12.89831 36046 ft 433 kts 308°
2026-05-05 11:19 44.81446 12.83474 36041 ft 432 kts 308°
2026-05-05 11:19 44.85421 12.77123 36039 ft 432 kts 308°
2026-05-05 11:20 44.89398 12.70752 36035 ft 433 kts 308°
2026-05-05 11:20 44.93373 12.64364 36037 ft 433 kts 308°
2026-05-05 11:21 44.97348 12.57973 36026 ft 433 kts 308°
2026-05-05 11:21 45.01292 12.51615 36024 ft 433 kts 308°
2026-05-05 11:22 45.05284 12.45162 36020 ft 433 kts 307°
2026-05-05 11:22 45.09244 12.38740 36019 ft 433 kts 307°
2026-05-05 11:23 45.13182 12.32349 36023 ft 433 kts 307°
2026-05-05 11:23 45.17144 12.25907 36014 ft 433 kts 307°
2026-05-05 11:24 45.21094 12.19461 36007 ft 433 kts 307°
2026-05-05 11:24 45.25044 12.13001 36010 ft 433 kts 307°
2026-05-05 11:25 45.28991 12.06531 36014 ft 433 kts 307°
2026-05-05 11:25 45.32934 12.00055 36036 ft 433 kts 307°
2026-05-05 11:26 45.36874 11.93566 36027 ft 433 kts 307°
2026-05-05 11:26 45.40803 11.87079 36018 ft 433 kts 307°
2026-05-05 11:27 45.44733 11.80579 36016 ft 433 kts 307°
2026-05-05 11:27 45.48651 11.74093 36016 ft 434 kts 306°
2026-05-05 11:28 45.52571 11.67566 36028 ft 434 kts 306°
2026-05-05 11:28 45.56493 11.61033 36027 ft 434 kts 306°
2026-05-05 11:29 45.60418 11.54478 36032 ft 434 kts 306°
2026-05-05 11:29 45.64342 11.47906 36029 ft 435 kts 306°
2026-05-05 11:30 45.68266 11.41316 36029 ft 435 kts 306°
2026-05-05 11:30 45.72192 11.34711 36035 ft 436 kts 306°
2026-05-05 11:31 45.76122 11.28088 36038 ft 436 kts 306°
2026-05-05 11:31 45.80048 11.21465 36038 ft 436 kts 306°
2026-05-05 11:32 45.83972 11.14822 36038 ft 436 kts 306°
2026-05-05 11:32 45.87865 11.08212 36053 ft 437 kts 306°
2026-05-05 11:33 45.91790 11.01527 36044 ft 437 kts 306°
2026-05-05 11:33 45.95706 10.94843 36032 ft 437 kts 306°
2026-05-05 11:34 45.99624 10.88144 36035 ft 438 kts 306°
2026-05-05 11:34 46.03532 10.81436 36025 ft 438 kts 306°
2026-05-05 11:35 46.07449 10.74714 36053 ft 438 kts 306°
2026-05-05 11:35 46.11368 10.67961 36032 ft 440 kts 305°
2026-05-05 11:36 46.15287 10.61193 36020 ft 440 kts 306°
2026-05-05 11:36 46.19205 10.54414 36016 ft 440 kts 305°
2026-05-05 11:37 46.23124 10.47608 36026 ft 441 kts 305°
2026-05-05 11:37 46.27009 10.40837 36030 ft 440 kts 305°
2026-05-05 11:38 46.30922 10.34024 36008 ft 440 kts 305°
2026-05-05 11:38 46.34828 10.27205 36000 ft 440 kts 305°
2026-05-05 11:39 46.38728 10.20359 35998 ft 441 kts 305°
2026-05-05 11:39 46.42632 10.13503 36000 ft 441 kts 305°
2026-05-05 11:40 46.46535 10.06629 36015 ft 441 kts 304°
2026-05-05 11:40 46.49799 9.99214 35998 ft 435 kts 294°
2026-05-05 11:41 46.52724 9.91504 35995 ft 436 kts 294°
2026-05-05 11:41 46.55659 9.83776 35997 ft 438 kts 294°
2026-05-05 11:42 46.58600 9.76011 35975 ft 438 kts 294°
2026-05-05 11:42 46.61539 9.68215 35981 ft 441 kts 294°
2026-05-05 11:43 46.64488 9.60364 35971 ft 443 kts 294°
2026-05-05 11:43 46.67421 9.52542 35685 ft 443 kts 294°
2026-05-05 11:43 46.68894 9.48615 34863 ft 442 kts 294°
2026-05-05 11:44 46.70367 9.44680 33958 ft 444 kts 294°
2026-05-05 11:44 46.71848 9.40715 32900 ft 447 kts 294°
2026-05-05 11:44 46.73340 9.36708 31802 ft 452 kts 294°
2026-05-05 11:44 46.74847 9.32645 30618 ft 460 kts 294°
2026-05-05 11:45 46.76378 9.28508 29343 ft 467 kts 294°
2026-05-05 11:45 46.77932 9.24312 28265 ft 471 kts 294°
2026-05-05 11:45 46.79493 9.20106 27270 ft 472 kts 294°
2026-05-05 11:45 46.81063 9.15878 26113 ft 473 kts 295°
2026-05-05 11:46 46.82619 9.11685 25523 ft 463 kts 294°
2026-05-05 11:46 46.84122 9.07636 25267 ft 447 kts 294°
2026-05-05 11:46 46.85581 9.03694 24849 ft 436 kts 294°
2026-05-05 11:46 46.87002 8.99824 24335 ft 429 kts 294°
2026-05-05 11:47 46.88390 8.96011 23794 ft 422 kts 294°
2026-05-05 11:47 46.89764 8.92242 23193 ft 417 kts 294°
2026-05-05 11:47 46.91125 8.88520 22566 ft 414 kts 294°
2026-05-05 11:47 46.92515 8.84848 21971 ft 412 kts 299°
2026-05-05 11:48 46.96457 8.78772 20828 ft 416 kts 322°
2026-05-05 11:48 46.98966 8.76691 20340 ft 415 kts 333°
2026-05-05 11:48 47.01698 8.75353 19828 ft 414 kts 345°
2026-05-05 11:49 47.04552 8.74736 19288 ft 414 kts 352°
2026-05-05 11:49 47.07397 8.74273 18839 ft 409 kts 351°
2026-05-05 11:49 47.10195 8.73684 18378 ft 404 kts 349°
2026-05-05 11:49 47.12954 8.72978 17861 ft 400 kts 347°
2026-05-05 11:50 47.15676 8.72212 17326 ft 396 kts 347°
2026-05-05 11:50 47.18365 8.71435 16808 ft 391 kts 347°
2026-05-05 11:50 47.21028 8.70679 16281 ft 388 kts 347°
2026-05-05 11:50 47.23670 8.69951 15786 ft 385 kts 347°
2026-05-05 11:51 47.26276 8.69153 15295 ft 380 kts 342°
2026-05-05 11:51 47.28743 8.67854 14831 ft 373 kts 333°
2026-05-05 11:51 47.31085 8.66253 14340 ft 369 kts 332°
2026-05-05 11:51 47.33379 8.64682 13857 ft 366 kts 332°
2026-05-05 11:52 47.35677 8.63111 13331 ft 363 kts 332°
2026-05-05 11:52 47.37905 8.61459 12968 ft 352 kts 326°
2026-05-05 11:52 47.39969 8.59638 12829 ft 338 kts 326°
2026-05-05 11:52 47.41857 8.57884 12708 ft 324 kts 320°
2026-05-05 11:53 47.43505 8.55731 12572 ft 309 kts 309°
2026-05-05 11:53 47.44799 8.53281 12377 ft 298 kts 299°
2026-05-05 11:53 47.45750 8.50593 12033 ft 292 kts 289°
2026-05-05 11:53 47.46347 8.47761 11674 ft 287 kts 279°
2026-05-05 11:54 47.46653 8.44858 11290 ft 285 kts 275°
2026-05-05 11:54 47.46928 8.41958 10899 ft 285 kts 275°
2026-05-05 11:54 47.47208 8.39072 10530 ft 284 kts 275°
2026-05-05 11:54 47.47490 8.36175 10162 ft 283 kts 275°
2026-05-05 11:55 47.47769 8.33303 9879 ft 280 kts 274°
2026-05-05 11:55 47.48214 8.30524 9557 ft 281 kts 291°
2026-05-05 11:55 47.49402 8.28226 9156 ft 284 kts 314°
2026-05-05 11:55 47.50944 8.26375 8519 ft 286 kts 319°
2026-05-05 11:56 47.52514 8.24579 7977 ft 284 kts 319°
2026-05-05 11:56 47.54237 8.23160 7402 ft 286 kts 342°
2026-05-05 11:56 47.56216 8.22992 6874 ft 288 kts
2026-05-05 11:56 47.58103 8.23980 6308 ft 290 kts 29°
2026-05-05 11:57 47.59610 8.25828 5947 ft 280 kts 46°
2026-05-05 11:57 47.60856 8.27911 5769 ft 262 kts 56°
2026-05-05 11:57 47.61626 8.30356 5347 ft 262 kts 79°
2026-05-05 11:57 47.61703 8.32944 5131 ft 244 kts 102°
2026-05-05 11:58 47.61200 8.35245 4909 ft 236 kts 122°
2026-05-05 11:58 47.60225 8.37131 4632 ft 226 kts 140°
2026-05-05 11:58 47.59076 8.38706 4344 ft 225 kts 140°
2026-05-05 11:58 47.57926 8.40287 4027 ft 229 kts 140°
2026-05-05 11:59 47.56695 8.41975 3702 ft 244 kts 140°
2026-05-05 11:59 47.55477 8.43651 3386 ft 232 kts 139°
2026-05-05 11:59 47.54719 8.44693 3190 ft 218 kts 138°
2026-05-05 11:59 47.53342 8.46582 2855 ft 185 kts 140°
2026-05-05 12:00 47.52739 8.47409 2665 ft 173 kts 140°
2026-05-05 12:00 47.51892 8.48568 2474 ft 158 kts 139°
2026-05-05 12:00 47.51105 8.49645 2218 ft 149 kts 139°
2026-05-05 12:00 47.50360 8.50662 2002 ft 144 kts 139°
2026-05-05 12:01 47.49397 8.51986 1745 ft 141 kts 138°
2026-05-05 12:01 47.48911 8.52654 1630 ft 140 kts 137°
2026-05-05 12:01 47.48194 8.53631 1451 ft 140 kts 137°
2026-05-05 12:01 47.47528 8.54538 1398 ft 118 kts 137°
2026-05-05 12:02 47.47037 8.55209 1388 ft 77 kts 137°
2026-05-05 12:02 47.46698 8.55675 1399 ft 58 kts 137°
2026-05-05 12:02 47.46467 8.55917 1405 ft 32 kts 159°
2026-05-05 12:02 47.46312 8.55977 1410 ft 14 kts 167°
2026-05-05 12:03 47.46247 8.55979 1404 ft 7 kts 214°
2026-05-05 12:03 47.46230 8.55875 1403 ft 17 kts 274°
2026-05-05 12:03 47.46244 8.55678 1400 ft 21 kts 277°
2026-05-05 12:03 47.46259 8.55458 1398 ft 21 kts 276°
2026-05-05 12:04 47.46269 8.55323 1399 ft 12 kts 277°
2026-05-05 12:04 47.46277 8.55188 1393 ft 14 kts 276°
2026-05-05 12:04 47.46313 8.55142 1401 ft 7 kts 357°
2026-05-05 12:04 47.46343 8.55147 1388 ft 0 kts